Showing default

OPS 1427 (OV3-4), 2201

Orbit data source: Space-Track

OPS 1427 (OV3-4), 2201 is a payload satellite owned by USAF OAR (US) in LEO that was launched on Fri, 10 Jun 1966 UTC via an SCOUT B launch vehicle from the Wallops Island (WLPIS). Payload-class satellites include a variety of spacecraft equipped with specific instruments for various scientific and technological missions. These include communications satellites like Starlink; space stations such as the ISS; scientific satellites like the Hubble; Earth observation satellites from companies like Planet Labs, Umbra, and HawkEye 360; GPS; miniature CubeSats for education and research; and military/defense satellites.

Loading next visibility...
Identifier
2201, 1966-052A
Orbit
LEO
Last TLE update
23 hours ago
Origin
Manufacturer
Space General
Mission
Defense Technology
Bus & Motor
OV3, Unknown motor
Mass
78 kg wet, 78 kg dry
Launch date (UTC)
1966-06-10 (59 years ago)
Launch vehicle
SCOUT B
Launch site
Wallops Island (WLPIS)
Object type
Payload
Rocket body
Debris
Shape & HBR
Oct Cyl, 0.7 m
Radar Cross Section
0.548 m², Medium (>0.1 m² and < 1m²)

Expand to show TLE details & history

TLE from 23 hours ago
0 OPS 1427 (OV3-4)
1 02201U 66052A   25181.38399811  .00000131  00000-0  26060-3 0  9995
2 02201  40.8864  66.2058 2233548  91.0474 294.4703 10.10016022161758
Epoch: 2025-06-30T09:12Z
TLE epoch observation values (Epoch: 2025-06-30T09:12:57.436Z)
Latitude
0.00001°
Longitude
9.27192°
Altitude
2,243.723 km
Speed
6.957 km/s
True Right ascension
04h 24m 49s
True Declination
0° 00' 00"
Sunlit
Object was in daylight at epoch
Visualization orbit readout
Latitude
-25.83582°
Longitude
-26.99213°
Altitude
3,846.423 km
Speed
5.824 km/s
Apparent Right ascension
03h 55m 30s
Apparent Declination
-40° 07' 39"
Sunlit
Object is in daylight
Visualization observer readout
Local Sidereal Time
20:17:07
Azimuth
112.65° SE
Elevation
-41.12°
Doppler factor
1
Orbital elements
Apogee altitude
4,683.668 km
Perigee altitude
644.435 km
Semi-major axis
9,042.189 km
Eccentricity
0.22335
Inclination
40.8864°
RAAN
66.2058°
Arg. of periapsis
91.0474°
True anomaly
Unknown
Mean anomaly
294.4703°
Eccentric anomaly
Unknown
Mean motion
2.52425 °/min
Orbital period
142.62 mins
BSTAR
0.0002606
Loading maneuver chart data...
Loading SW <> Apogee altitude chart data...
Loading historical data...
Loading historical data...
Loading historical data...
Loading historical data...
Loading historical data...
Loading historical data...
Loading historical data...
Other satellites on launch #52 in the year 1966 (1966-06-10 UTC)

OPS 1427 (OV3-4) Visibility forecast

Observer location: undefined°, undefined°

Span
Click to sort rows by Start time (UTC) header in descending order
Start Az.
Max El. time (UTC)
Max El. Az.
Max El.
End time (UTC)
End Az.
12 mins2025-07-01 18:34:58.272Z209.803° SW2025-07-01 18:42:58.272Z147.347° SSE26.445°2025-07-01 18:46:58.272Z95.514° ESE
8 mins2025-07-01 21:07:58.272Z254.184° W2025-07-01 21:11:58.272Z239.946° WSW43.435°2025-07-01 21:15:58.272Z79.859° E
7 mins2025-07-01 23:38:58.272Z279.988° WNW2025-07-01 23:41:58.272Z228.887° WSW44.856°2025-07-01 23:45:58.272Z104.755° ESE
8 mins2025-07-02 02:08:58.272Z249.988° W2025-07-02 02:11:58.272Z200.916° SSW23.69°2025-07-02 02:16:58.272Z154.879° SSE
|